Regional Weather Roundup
Issued by NWS

Home | Current Version | Previous Version | Graphics & Text | Print | Product List | Glossary Off
Versions: 1 2 3 4 5 6 7 8 9 10 11 12 13 14 15 16 17 18 19 20 21 22 23 24 25 26 27 28 29 30 31 32 33 34 35 36 37 38 39 40 41 42 43 44 45 46 47 48 49 50

000
ASUS43 KDMX 251707
RWRIA

WEATHER ROUNDUP FOR IOWA
NATIONAL WEATHER SERVICE DES MOINES IA
1200 PM CDT MON MAY 25 2015

NOTE: "FAIR" INDICATES FEW OR NO CLOUDS BELOW 12,000 FEET WITH NO
SIGNIFICANT WEATHER AND/OR OBSTRUCTIONS TO VISIBILITY.

* - THESE STATIONS ARE NOT NWS STATIONS...THUS NOT UNDER NWS
QUALITY CONTROL.  THEY ALSO DO NOT REPORT WEATHER SUCH
AS PRECIPITATION OR FOG.

IAZ001>003-012>014-020>022-031>034-043>046-251800-
   NORTHWEST IOWA

CITY           SKY/WX    TMP DP  RH WIND       PRES   REMARKS
CARROLL *      SUNNY     72  63  73 SW14G22   29.79F
CHEROKEE *     PTSUNNY   68  64  88 SW14      29.77F
DENISON *      SUNNY     72  64  78 SW10G18   29.77F
LE MARS *      PTSUNNY   68  63  83 SW10      29.77F
ORANGE CITY *  PTSUNNY   64  59  82 W9        29.77F
SHELDON *      CLOUDY    64 N/A N/A SW13      29.77S
SIOUX CITY     CLOUDY    69  61  75 SW7       29.76F
SPENCER        PTSUNNY   69  62  78 SW18      29.77F
STORM LAKE *   PTSUNNY   68  66  94 SW15G22   29.79F
$$

IAZ055>058-069>071-079>083-090>094-251800-
   SOUTHWEST IOWA

CITY           SKY/WX    TMP DP  RH WIND       PRES   REMARKS
ATLANTIC *     PTSUNNY   72  59  64 SW16      29.81F
AUDUBON *      SUNNY     73  63  68 S14G21    29.82F
CLARINDA *     MOSUNNY   75  61  60 SW20G29   29.84S
COUNCIL BLFS * MOSUNNY   72  61  68 SW12      29.80F
CRESTON *      SUNNY     72  63  73 S16       29.84S
HARLAN  *      PTSUNNY   72  64  78 SW14G23   29.84F
LAMONI         MOSUNNY   76  62  62 S17G24    29.86R
RED OAK *      PTSUNNY   73  63  68 SW13G18   29.82F
SHENANDOAH *   PTSUNNY   73  61  64 SW14G21   29.82F
$$

IAZ047>049-059>061-072>074-084-251800-
   CENTRAL IOWA

CITY           SKY/WX    TMP DP  RH WIND       PRES   REMARKS
AMES           MOSUNNY   74  64  71 SW18      29.81R
ANKENY *       SUNNY     73  61  64 SW12G17   29.82S
CHARITON *     MOSUNNY   73  63  68 S17       29.85S
DES MOINES     MOSUNNY   75  60  59 SW14      29.82S
GRINNELL*      MOSUNNY   72  61  68 S14       29.85R
KNOXVILLE *    SUNNY     75  61  60 S14       29.83R
MARSHALLTOWN   MOSUNNY   73  63  70 SW17G23   29.81F
PELLA *        SUNNY     75  66  73 SW12      29.85S
PERRY *          N/A     73  61  64 SW15      29.81F
$$

IAZ004>006-015-016-023>025-035-036-251800-
   NORTH CENTRAL IOWA

CITY           SKY/WX    TMP DP  RH WIND       PRES   REMARKS
ALGONA *       CLOUDY    70  63  78 SW18      29.78S
CLARION *      CLOUDY    70 -35   1 SW18G25   29.79R
ESTHERVILLE    CLOUDY    67  60  78 SW17      29.76S
FORT DODGE *   CLOUDY    68  63  83 SW12G17   29.80S
MASON CITY     CLOUDY    70  62  76 W15       29.79R
FOREST CITY *  CLOUDY    66  61  82 W13       29.78S
IOWA FALLS *   CLOUDY    70  63  78 SW17      29.82R
$$

IAZ007>011-017>019-026>030-037>042-050>054-066-251800-
   NORTHEAST IOWA

CITY           SKY/WX    TMP DP  RH WIND       PRES   REMARKS
CEDAR RAPIDS   CLOUDY    72  64  76 SW15      29.84F
CHARLES CITY * CLOUDY    68  66  94 SW15G22   29.79S
CLINTON *      PTSUNNY   73  64  73 SW20G29   29.89F
DECORAH *      PTSUNNY   70  63  78 SW8G21    29.78R
DUBUQUE        CLOUDY    68  63  84 SW17G28   29.84R
MONTICELLO *   PTSUNNY   72  66  83 SW15G22   29.84F
OELWEIN *      CLOUDY    70  64  83 SW17G28   29.82R
WATERLOO       CLOUDY    71  63  75 SW16G26   29.80R
$$

IAZ064-065-067-068-078-251800-
   EAST CENTRAL IOWA

CITY           SKY/WX    TMP DP  RH WIND       PRES   REMARKS
DAVENPORT      MOSUNNY   72  63  73 SW15G25   29.89S
IOWA CITY      MOSUNNY   74  64  71 SW16G23   29.87F
MT. PLEASANT * PTSUNNY   72  63  73 S17G25    29.90F
MUSCATINE *    MOSUNNY   75  63  64 SW17G23   29.89R
QUAD CITIES    MOSUNNY   74  62  66 SW16G24   29.88S
$$

IAZ062-063-075>077-085>089-095>099-251800-
   SOUTHEAST IOWA

CITY           SKY/WX    TMP DP  RH WIND       PRES   REMARKS
BURLINGTON     CLOUDY    72  63  73 SW16G26   29.92S
FAIRFIELD *    PTSUNNY   72  63  73 S18G24    29.89S
FORT MADISON * CLOUDY    72  64  78 S10G20    29.92F
KEOKUK *       PTSUNNY   73  63  68 SW13G21   29.92F
OSKALOOSA *      N/A     72  63  73 S15       29.86S
CENTERVILLE *  SUNNY     73  73 100 S16       29.88S
OTTUMWA        MOSUNNY   73  65  75 S15       29.86R
WASHINGTON *   PTSUNNY   73  64  73 S20G26    29.88F
$$

ABBREVIATIONS USED IN REMARKS
   TC - TEMPERATURES IN CELSIUS
  WCI - WIND CHILL INDEX
   HX - HEAT INDEX
  VSB - VISIBILITY
$$




USA.gov is the U.S. government's official web portal to all federal, state and local government web resources and services.